TIME,�g��[���C[MJ/h],����[MJ/h],�Ɩ�[MJ/h],�~�[[MJ/h],�①��[MJ/h],��y���[MJ/h],�Ǝ��q��[MJ/h],���̑��s��[MJ/h],�u�����`������[MJ/h]
2004/11/1 0:00,0.1728,0,0.47232,0.0216,0,0.31536,0.07344,0,-0.0072
2004/11/1 0:15,0.17136,0,0.1872,0.02448,0.21312,0.2736,0.04608,0,-0.00576
2004/11/1 0:30,0.18432,0,0.23472,0.0288,0.4752,0.24624,0.07632,0,-0.03456
2004/11/1 0:45,0.1728,0,0.18576,0.0216,0.01008,0.2376,0.07488,0,0.01584
2004/11/1 1:00,0.17136,0,0.16416,0.0216,0.09216,0.23616,0.07488,0,0.0576
2004/11/1 1:15,0.20304,0,0.20016,0.03168,0.4824,0.23184,0.07488,0,-0.01872
2004/11/1 1:30,0.17568,0,0.16992,0.02448,0.12384,0.22896,0.07488,0,0.03168
2004/11/1 1:45,0.16992,0,0.18,0.0216,0,0.22896,0.07488,0,0.0504
2004/11/1 2:00,0.17136,0,0.17424,0.02736,0.44208,0.22752,0.0432,0,-0.00864
2004/11/1 2:15,0.17712,0,0.17136,0.0288,0.21744,0.22896,0.07632,0,0.02304
2004/11/1 2:30,0.19296,0,0.16128,0.0216,0,0.22752,0.07488,0,0.036
2004/11/1 2:45,0.1656,0,0.16416,0.0288,0.34704,0.22464,0.07488,0,0.00432
2004/11/1 3:00,0.19872,0,0.15264,0.02592,0.324,0.22752,0.0792,0,0.00576
2004/11/1 3:15,0.17136,0,0.1944,0.0216,0,0.22608,0.07488,0,0.03312
2004/11/1 3:30,0.16848,0,0.16848,0.02592,0.22608,0.22608,0.0432,0,0.01584
2004/11/1 3:45,0.17136,0,0.16848,0.02736,0.43488,0.22752,0.07776,0,0.00432
2004/11/1 4:00,0.2016,0,0.15984,0.0216,0,0.22608,0.07632,0,0.01296
2004/11/1 4:15,0.1728,0,0.18144,0.0216,0.13104,0.22608,0.07488,0,0.03312
2004/11/1 4:30,0.16992,0,0.16848,0.02448,0.4752,0.2232,0.07056,0,-0.02736
2004/11/1 4:45,0.17136,0,0.17424,0.0216,0.03888,0.22608,0.07632,0,0.03168
2004/11/1 5:00,0.20304,0,0.18144,0.02304,0.04176,0.22608,0.07776,0,0.01008
2004/11/1 5:15,0.17136,0,0.18288,0.036,0.47376,0.22752,0.0432,0,-0.00576
2004/11/1 5:30,0.17136,0,0.19728,0.87552,0.13824,0.22608,0.07776,0,-0.01584
2004/11/1 5:45,0.2016,0,0.2232,1.49184,0,0.22464,0.07632,0,-0.00864
2004/11/1 6:00,0.1728,0,0.20448,0.23904,0.40752,0.22608,0.07488,0,-0.03168
2004/11/1 6:15,0.1728,0,0.17136,0.11232,0.2304,0.2232,0.07488,0,0.01008
2004/11/1 6:30,0.18144,0,0.46224,0.05328,0,0.22608,0.0432,0,0.00576
2004/11/1 6:45,0.19152,0,1.79424,0.468,0.34416,0.2232,0.07632,0,-0.26064
2004/11/1 7:00,0.2808,0,2.2824,0.33984,0.4176,0.23184,0.2664,0,-0.32832
2004/11/1 7:15,0,0,1.93824,0.35424,0,0.2232,0.07632,0,-0.13104
2004/11/1 7:30,0.0288,0,2.1024,0.02448,0.16128,0.22464,0.2016,0,-0.1944
2004/11/1 7:45,0.0288,0,1.5984,0.33408,0.50688,0.22464,0.0936,0,-0.20736
2004/11/1 8:00,0.036,0,1.08576,0.02304,0.2664,0.22608,0.08064,0,-0.04608
2004/11/1 8:15,0.0216,0,0.80352,0.0216,0,0.22464,0.4752,0,-0.0648
2004/11/1 8:30,0,0,0.55872,0.02448,0.3456,0.22464,0.0792,0,-0.04464
2004/11/1 8:45,0,0,0.1728,0.02448,0.39744,0.22464,0.07632,0,0.01296
2004/11/1 9:00,0,0,0.16704,0.0216,0,0.22464,0.08064,0,0.06624
2004/11/1 9:15,0,0,0.16848,0.02448,0.2016,0.22464,0.0432,0,0.03456
2004/11/1 9:30,0,0,0.16128,0.0288,0.48672,0.22464,0.07344,0,0.01296
2004/11/1 9:45,0,0,0.17136,0.0216,0.01584,0.22608,0.07776,0,0.05328
2004/11/1 10:00,0,0,0.1728,0.02448,0.1008,0.22608,0.07776,0,0.04752
2004/11/1 10:15,0,0,0.288,1.06992,0.50976,0.2232,0.07632,0,-0.09936
2004/11/1 10:30,0.0072,0,0.2088,0.02304,0.18576,0.22608,0.07488,0,0.03168
2004/11/1 10:45,0.108,0,0.82224,0.0216,0,0.22464,0.0432,0,-0.03024
2004/11/1 11:00,0.09648,0,0.82944,0.02304,0.42768,0.2232,0.07488,0,-0.10368
2004/11/1 11:15,0.05184,0,0.504,0.02736,0.29232,0.22608,0.07488,0,-0.05328
2004/11/1 11:30,0.04896,0,0.4536,0.0216,0,0.2232,0.07344,0,-0.00144
2004/11/1 11:45,0.05616,0,0.5184,0.02448,0.31536,0.22608,0.07344,0,-0.04608
2004/11/1 12:00,0.0648,0,0.67968,0.02736,0.37152,0.22464,0.05184,0,-0.05616
2004/11/1 12:15,0.05184,0,0.68544,0.0216,0,0.22464,0.0504,0,-0.0216
2004/11/1 12:30,0.04464,0,0.47376,0.31392,0.2376,0.22464,0.04032,0,-0.0576
2004/11/1 12:45,0.04608,0,0.4464,0.02592,0.45792,0.22464,0.07056,0,-0.05904
2004/11/1 13:00,0.0432,0,0.4536,0.0216,0,0.22464,0.07344,0,-0.00432
2004/11/1 13:15,0.04896,0,0.44928,0.02448,0.144,0.22608,0.072,0,-0.01296
2004/11/1 13:30,0.0432,0,0.45792,0.02304,0.49248,0.22464,0.07488,0,-0.05616
2004/11/1 13:45,0.18144,0,0.4896,0.0216,0.06048,0.23904,0.07344,0,-0.02592
2004/11/1 14:00,0.07488,0,0.60624,0.02304,0.07632,0.22608,0.06768,0,-0.0288
2004/11/1 14:15,0.0432,0,0.35568,0.02304,0.48528,0.2376,0.04896,0,-0.00576
2004/11/1 14:30,0.0432,0,0.38736,0.02448,0.16704,0.2376,0.07632,0,0.02448
2004/11/1 14:45,0.0432,0,0.5256,0.0216,0,0.2376,0.07344,0,0.036
2004/11/1 15:00,0.12672,0,1.0944,0.02304,0.45936,0.2376,0.08208,0,-0.09792
2004/11/1 15:15,0.06192,0,0.92016,0.02304,0.24912,0.22752,0.07488,0,-0.03888
2004/11/1 15:30,0.01728,0,0.6264,0.0216,0,0.22752,0.0792,0,0.03312
2004/11/1 15:45,0,0,0.54288,0.02448,0.36576,0.21888,0.11808,0,-0.01296
2004/11/1 16:00,0,0,0.792,0.0216,0.33264,0.22176,0.08352,0,-0.01872
2004/11/1 16:15,0,0,0.84096,0.0216,0,0.2232,0.07776,0,0.00864
2004/11/1 16:30,0,0,0.9792,0.02736,0.28368,0.22176,0.0792,0,-0.03312
2004/11/1 16:45,0,0,1.0008,0.34272,0.49104,0.21744,0.07344,0,-0.10368
2004/11/1 17:00,0,0,0.97344,1.46304,0.53424,0.22032,0.07632,0,-0.1008
2004/11/1 17:15,0,0,1.17648,0.2016,0.5328,0.4536,0.07632,0,-0.14976
2004/11/1 17:30,0,0,1.2384,0.54288,0.47232,0.50544,0.07488,0,-0.13968
2004/11/1 17:45,0,0,1.18368,2.43072,0.56592,0.49392,0.0432,0,-0.144
2004/11/1 18:00,0,0,1.15776,0.5256,0.53136,0.44208,0.07488,0,-0.04032
2004/11/1 18:15,0,0,1.18368,0.0792,0.48816,0.4104,0.07632,0,-0.09072
2004/11/1 18:30,0,0,1.18224,0.07056,0.08352,0.4104,0.07632,0,-0.04752
2004/11/1 18:45,0,0,1.188,0.07056,0.1368,0.60192,0.07056,0,-0.08208
2004/11/1 19:00,0,0,1.31328,0.072,0.49248,0.61488,0.07632,0,-0.1224
2004/11/1 19:15,0.0072,0,1.56528,0.17424,0.34272,0.57168,0.05616,0,-0.15552
2004/11/1 19:30,0.05904,0,1.72512,0.33984,0.01008,0.39744,0.06192,0,-0.1224
2004/11/1 19:45,0.04176,0,1.84752,0.0216,0.30672,0.3816,0.072,0,-0.15552
2004/11/1 20:00,0.06768,0,1.78272,0.036,0.47664,0.60192,0.0792,0,-0.22608
2004/11/1 20:15,0.06336,0,1.76256,0.0216,0.01872,1.05264,0.07488,0,-0.25488
2004/11/1 20:30,0.3528,0,0.88848,0.02448,0.13248,0.74448,0.07776,0,-0.15552
2004/11/1 20:45,0.4824,0,1.44288,0.03312,0.4752,0.21744,0.07344,0,-0.22464
2004/11/1 21:00,0.48528,0,1.8504,0.02592,0.14112,0.21744,0.108,0,-0.24768
2004/11/1 21:15,0.44352,0,1.7568,0.22896,0.01872,0.21744,0.07344,0,-0.24624
2004/11/1 21:30,0.4752,0,2.02464,0.03312,0.47232,0.21888,0.072,0,-0.27216
2004/11/1 21:45,0.36144,0,2.12256,0.0216,0.25776,0.23904,0.13104,0,-0.2592
2004/11/1 22:00,0.36864,0,2.12832,0.0216,0.09216,0.21888,0.07344,0,-0.2088
2004/11/1 22:15,0.3312,0,2.29392,0.02736,0.48384,0.23472,0.07488,0,-0.27936
2004/11/1 22:30,0.26784,0,2.17872,0.02448,0.36864,0.252,1.08864,0,-0.38736
2004/11/1 22:45,0.23904,0,1.5768,0.0216,0,0.21744,0.0432,0,-0.10944
2004/11/1 23:00,0,0,1.4328,0.02592,0.27072,0.3528,0.07776,0,-0.144
2004/11/1 23:15,0,0,0.97344,0.02304,0.48672,0.21888,0.07488,0,-0.0936
2004/11/1 23:30,0,0,0.5328,0.02304,0.18288,0.22032,0.07488,0,0.00432
2004/11/1 23:45,0,0,0.44784,0.0216,0,0.21744,0.07488,0,0.0216
2004/11/2 0:00,0,0,0.47664,0.02592,0.46944,0.22032,0.07632,0,-0.01584
2004/11/2 0:15,0,0,0.45072,0.02304,0.44064,0.22032,0.0432,0,-0.01872
2004/11/2 0:30,0,0,0.44064,0.0216,0,0.22176,0.07488,0,0.04176
2004/11/2 0:45,0,0,0.44784,0.02448,0.19872,0.216,0.0792,0,0.01152
2004/11/2 1:00,0,0,0.4392,0.02304,0.49392,0.21888,0.07776,0,-0.02736
2004/11/2 1:15,0,0,0.44928,0.02592,0.14688,0.22032,0.072,0,-0.00144
2004/11/2 1:30,0,0,0.4464,0.0216,0.01152,0.22176,0.06768,0,0.02304
2004/11/2 1:45,0,0,0.45072,0.02592,0.48096,0.22464,0.0504,0,-0.02448
2004/11/2 2:00,0,0,0.44784,0.03024,0.28368,0.2232,0.07488,0,-0.00144
2004/11/2 2:15,0,0,0.45072,0.0216,0,0.21888,0.07488,0,0.02592
2004/11/2 2:30,0,0,0.45072,0.03024,0.34416,0.21888,0.072,0,-0.0144
2004/11/2 2:45,0,0,0.45216,0.03456,0.3744,0.22032,0.07488,0,-0.0216
2004/11/2 3:00,0,0,0.44352,0.0216,0,0.22176,0.07344,0,0.02592
2004/11/2 3:15,0,0,0.44352,0.02304,0.2448,0.22032,0.0432,0,-0.00432
2004/11/2 3:30,0,0,0.47664,0.03024,0.45072,0.21888,0.0792,0,-0.02304
2004/11/2 3:45,0,0,0.44352,0.0216,0,0.21888,0.07632,0,0.02736
2004/11/2 4:00,0,0,0.44784,0.02304,0.16272,0.2232,0.07632,0,0.00576
2004/11/2 4:15,0,0,0.4464,0.03744,0.46656,0.22032,0.07344,0,-0.02592
2004/11/2 4:30,0,0,0.43344,0.02304,0.04032,0.21888,0.05472,0,0.03456
2004/11/2 4:45,0,0,0.44784,0.02448,0.0864,0.22032,0.06048,0,0.01584
2004/11/2 5:00,0,0,0.44784,0.03456,0.47088,0.21888,0.07344,0,-0.0288
2004/11/2 5:15,0,0,0.45504,0.0216,0.108,0.22032,0.07056,0,0.01584
2004/11/2 5:30,0,0,0.44784,0.0216,0.03168,0.21888,0.07776,0,0.01728
2004/11/2 5:45,0,0,0.45648,0.0288,0.46656,0.22032,0.08064,0,-0.0432
2004/11/2 6:00,0,0,0.4536,0.02304,0.16992,0.21888,0.07056,0,0.01008
2004/11/2 6:15,0,0,0.52272,0.0216,0,0.21888,0.07488,0,0.01584
2004/11/2 6:30,0.0648,0,1.23984,0.72288,0.44352,0.35856,0.04464,0,-0.21744
2004/11/2 6:45,0,0,0.94896,1.9008,0.23472,0.56448,0.07344,0,-0.13824
2004/11/2 7:00,0,0,1.188,1.19664,0.0216,0.43632,0.07632,0,-0.09504
2004/11/2 7:15,0,0,1.17216,0.8496,0.46656,0.22032,0.0792,0,-0.1296
2004/11/2 7:30,0.0216,0,1.17072,0.05616,0.22464,0.22032,0.07488,0,-0.04752
2004/11/2 7:45,0,0,0.78336,0.0216,0,0.49968,0.0792,0,-0.0216
2004/11/2 8:00,0.0792,0,1.15344,0.03024,0.35568,0.59328,1.692,0,-0.37008
2004/11/2 8:15,0.0648,0,1.1808,0.02592,0.31824,0.23616,1.78848,0,-0.33264
2004/11/2 8:30,0,0,0.87408,0.0216,0,0.2232,0.07488,0,-0.02592
2004/11/2 8:45,0,0,0.6552,0.88848,0.29088,0.21888,0.07776,0,-0.05328
2004/11/2 9:00,0,0,0.91584,0.02736,0.45216,0.22032,0.072,0,-0.0792
2004/11/2 9:15,0,0,0.45216,0.0216,0,0.22176,0.07488,0,0.02592
2004/11/2 9:30,0,0,0.44496,0.02592,0.14832,0.2232,0.0432,0,0.00576
2004/11/2 9:45,0,0,0.45072,0.02304,0.49536,0.22176,0.07632,0,-0.03024
2004/11/2 10:00,0,0,0.44064,0.02304,0.08928,0.22464,0.07488,0,0.01008
2004/11/2 10:15,0,0,0.44496,0.02304,0.03888,0.21888,0.07056,0,0.02736
2004/11/2 10:30,0,0,0.45072,0.02304,0.48096,0.22032,0.07632,0,-0.03168
2004/11/2 10:45,0,0,0.44208,0.02448,0.19008,0.2232,0.0792,0,0.01152
2004/11/2 11:00,0,0,0.39024,0.0216,0,0.21888,0.07776,0,0.03024
2004/11/2 11:15,0,0,0.33264,0.02736,0.42336,0.21888,0.0432,0,-0.01296
2004/11/2 11:30,0,0,0.30528,0.02592,0.29376,0.2232,0.07488,0,0.0144
2004/11/2 11:45,0,0,0.16848,0.0216,0,0.22464,0.07056,0,0.06192
2004/11/2 12:00,0,0,0.17712,0.02304,0.30672,0.22176,0.07776,0,0.02448
2004/11/2 12:15,0,0,0.16992,0.0216,0.42192,0.21744,0.07632,0,0.00864
2004/11/2 12:30,0,0,0.17712,0.0216,0,0.21888,0.07632,0,0.05184
2004/11/2 12:45,0,0,0.1728,0.02736,0.2088,0.22032,0.0432,0,0.03168
2004/11/2 13:00,0,0,0.3312,0.02304,0.48384,0.21888,0.07344,0,-0.02592
2004/11/2 13:15,0,0,0.2088,0.02304,0.02592,0.216,0.072,0,0.05328
2004/11/2 13:30,0,0,0.1728,0.02304,0.1152,0.216,0.07344,0,0.0432
2004/11/2 13:45,0,0,0.17568,0.02304,0.49392,0.21744,0.07488,0,-0.00144
2004/11/2 14:00,0,0,0.18432,0.02304,0.12528,0.21888,0.07344,0,0.03744
2004/11/2 14:15,0,0,0.17712,0.0216,0.0144,0.21888,0.07488,0,0.05904
2004/11/2 14:30,0,0,0.17568,0.02736,0.48096,0.22032,0.0432,0,0.00144
2004/11/2 14:45,0,0,0.18,0.0216,0.21312,0.22464,0.07632,0,0.03312
2004/11/2 15:00,0,0,0.16992,0.0216,0,0.22032,0.07344,0,0.05904
2004/11/2 15:15,0,0,0.32112,0.02592,0.42336,0.216,0.07488,0,-0.01584
2004/11/2 15:30,0,0,0.36576,0.02736,0.35424,0.22032,0.07488,0,-0.01008
2004/11/2 15:45,0,0,0.49248,0.0216,0,0.2304,0.0432,0,0.036
2004/11/2 16:00,0,0,0.68832,0.0216,0.25344,0.22608,0.07344,0,-0.02736
2004/11/2 16:15,0,0,0.6912,0.0216,0.49536,0.22176,0.07632,0,-0.04608
2004/11/2 16:30,0,0,0.756,0.0216,0.01008,0.22032,0.072,0,0.02016
2004/11/2 16:45,0.02304,0,1.17072,0.46656,0.12672,0.23472,0.07632,0,-0.10944
2004/11/2 17:00,0.12672,0,1.96848,0.0288,0.4752,0.23472,0.0432,0,-0.2088
2004/11/2 17:15,0.12672,0,2.21328,0.02304,0.10944,0.2232,0.07056,0,-0.20016
2004/11/2 17:30,0.19008,0,1.88496,0.0216,0.02736,0.2304,0.07632,0,-0.16128
2004/11/2 17:45,0.42048,0,1.14192,0.03456,0.47232,0.22464,0.07488,0,-0.13104
2004/11/2 18:00,0.29232,0,1.77696,0.57024,0.51408,0.35424,0.07056,0,-0.29088
2004/11/2 18:15,0.33264,0,2.38464,0.4536,0.57024,0.32976,0.07488,0,-0.38304
2004/11/2 18:30,0.22608,0,2.02032,0.02304,0.54576,0.4032,0.12672,0,-0.26064
2004/11/2 18:45,0.21744,0,1.83744,0.0288,0.46512,0.50832,0.06192,0,-0.19296
2004/11/2 19:00,0.21168,0,1.84464,0.6624,0.57744,0.34848,0.07632,0,-0.35568
2004/11/2 19:15,0.21744,0,1.95408,0.02448,0.52992,0.40752,0.07488,0,-0.24768
2004/11/2 19:30,0.22176,0,2.02608,0.02448,0.504,0.55296,0.07488,0,-0.27648
2004/11/2 19:45,0.30672,0,1.74096,0.0288,0.41328,0.3456,0.072,0,-0.2304
2004/11/2 20:00,0.288,0,1.66176,0.0216,0,0.3456,0.12096,0,-0.19584
2004/11/2 20:15,0.23184,0,2.00448,0.02304,0.25776,0.34992,0.10512,0,-0.25056
2004/11/2 20:30,0.2016,0,1.92096,0.03312,0.48528,0.34992,0.1296,0,-0.23472
2004/11/2 20:45,0.22752,0,2.13696,0.02448,0.14976,0.3456,0.0648,0,-0.216
2004/11/2 21:00,0.1008,0,2.44656,0.0216,0,0.3456,0.04464,0,-0.20592
2004/11/2 21:15,0.01152,0,2.18304,0.02448,0.49392,0.36432,0.1368,0,-0.2448
2004/11/2 21:30,0,0,2.23488,0.02592,0.3744,0.55008,0.07344,0,-0.2304
2004/11/2 21:45,0,0,1.99872,0.0216,0,0.61344,0.072,0,-0.18864
2004/11/2 22:00,0,0,2.07936,0.02448,0.24048,0.60048,0.07632,0,-0.26208
2004/11/2 22:15,0.036,0,2.21184,0.0216,0.4968,0.52992,0.07776,0,-0.30096
2004/11/2 22:30,0.0576,0,0.93888,0.02304,0.09648,0.49392,1.2168,0,-0.22464
2004/11/2 22:45,0.0216,0,1.75968,0.02304,0.036,0.3456,0.072,0,-0.18
2004/11/2 23:00,0.0216,0,1.49616,0.02304,0.47952,0.3456,0.07488,0,-0.18144
2004/11/2 23:15,0,0,0.82512,0.02592,0.30096,0.3456,0.07488,0,-0.06192
2004/11/2 23:30,0,0,0.68112,0.0216,0,0.3456,0.072,0,0.00432
2004/11/2 23:45,0,0,0.66528,0.02736,0.33408,0.3456,0.0432,0,-0.03456
2004/11/3 0:00,0,0,0.66384,0.0288,0.44784,0.3456,0.07488,0,-0.04032
2004/11/3 0:15,0,0,0.65952,0.0216,0,0.3456,0.072,0,0.01728
2004/11/3 0:30,0,0,0.18864,0.02448,0.1584,0.3456,0.07488,0,0.00864
2004/11/3 0:45,0,0,0.21168,0.02736,0.49104,0.3456,0.06912,0,-0.02736
2004/11/3 1:00,0,0,0.2016,0.02304,0.12384,0.3456,0.0432,0,0.01872
2004/11/3 1:15,0,0,0.18864,0.0216,0,0.3456,0.07632,0,0.03744
2004/11/3 1:30,0,0,0.17424,0.02592,0.47808,0.23184,0.072,0,0.00144
2004/11/3 1:45,0,0,0.17712,0.03024,0.26496,0.21744,0.07632,0,0.02304
2004/11/3 2:00,0,0,0.17424,0.0216,0,0.21744,0.07488,0,0.05328
2004/11/3 2:15,0,0,0.17568,0.02448,0.33408,0.22464,0.04176,0,0.02304
2004/11/3 2:30,0,0,0.18288,0.02448,0.39744,0.22464,0.06768,0,0.00576
2004/11/3 2:45,0,0,0.17712,0.0216,0,0.22464,0.07632,0,0.06048
2004/11/3 3:00,0,0,0.17136,0.02448,0.19008,0.22032,0.07488,0,0.02736
2004/11/3 3:15,0,0,0.17424,0.03168,0.48672,0.22032,0.07488,0,-0.00288
2004/11/3 3:30,0,0,0.16848,0.0216,0.05616,0.21744,0.07776,0,0.0576
2004/11/3 3:45,0,0,0.17424,0.0216,0.05184,0.216,0.0432,0,0.05904
2004/11/3 4:00,0,0,0.18288,0.03024,0.47232,0.22032,0.06912,0,-0.00864
2004/11/3 4:15,0,0,0.17568,0.02736,0.1872,0.21888,0.07488,0,0.0432
2004/11/3 4:30,0,0,0.17856,0.0216,0,0.22176,0.07056,0,0.05616
2004/11/3 4:45,0,0,0.17136,0.0288,0.39312,0.2232,0.07056,0,0.02592
2004/11/3 5:00,0,0,0.17712,0.02304,0.31536,0.21888,0.07488,0,0.0288
2004/11/3 5:15,0,0,0.17424,0.0216,0,0.2232,0.0432,0,0.06624
2004/11/3 5:30,0,0,0.17424,0.02448,0.26208,0.22032,0.07632,0,0.02016
2004/11/3 5:45,0,0,0.17568,0.03024,0.45216,0.22176,0.07776,0,0.01008
2004/11/3 6:00,0,0,0.17568,0.0216,0,0.22464,0.07488,0,0.06048
2004/11/3 6:15,0,0,0.17712,0.0216,0.12816,0.21888,0.072,0,0.04752
2004/11/3 6:30,0,0,0.30384,0.54432,0.47232,0.22032,0.04176,0,-0.06912
2004/11/3 6:45,0.02304,0,0.35136,1.34352,0.08064,0.22464,0.07632,0,0.0144
2004/11/3 7:00,0.00432,0,0.30672,1.31184,0.01872,0.22752,0.07488,0,0.05328
2004/11/3 7:15,0,0,0.33984,0.2664,0.4752,0.22032,0.07488,0,-0.02448
2004/11/3 7:30,0,0,0.396,1.0656,0.32112,0.21744,0.07344,0,-0.07488
2004/11/3 7:45,0,0,0.62928,0.06624,0,0.22176,0.10656,0,0.06048
2004/11/3 8:00,0,0,0.65088,0.02448,0.36576,0.2232,0.0432,0,0.03168
2004/11/3 8:15,0,0,0.76896,0.02592,0.46368,0.216,0.52272,0,-0.05184
2004/11/3 8:30,0.05328,0,1.29744,0.39744,0,0.22752,0.07632,0,1.93824
2004/11/3 8:45,0.0216,0,1.21824,0.02304,0.1224,0.22032,0.07632,0,-0.02592
2004/11/3 9:00,0.0432,0,1.03536,0.0216,0.49536,0.22032,0.5544,0,-0.14976
2004/11/3 9:15,0.0216,0,0.87984,0.02304,0.25056,0.50544,0.07344,0,-0.08496
2004/11/3 9:30,0,0,0.55728,0.0216,0,0.5688,0.07488,0,-0.01584
2004/11/3 9:45,0,0,0.3456,0.02448,0.31248,0.33264,0.0432,0,0.01008
2004/11/3 10:00,0,0,0.3456,0.02448,0.45648,0.22032,0.07488,0,0.00144
2004/11/3 10:15,0,0,0.34416,0.0216,0,0.2232,0.07488,0,0.04608
2004/11/3 10:30,0,0,0.34416,0.02448,0.11664,0.21888,0.072,0,0.05472
2004/11/3 10:45,0,0,0.34848,0.02448,0.4824,0.22032,0.07632,0,-0.00432
2004/11/3 11:00,0,0,0.34704,0.02448,0.1512,0.22176,0.07344,0,0.03888
2004/11/3 11:15,0,0,0.34992,0.0216,0,0.22032,0.0432,0,0.05328
2004/11/3 11:30,0,0,0.33984,0.02736,0.42912,0.22032,0.07344,0,0.01296
2004/11/3 11:45,0.04176,0,0.4176,0.8136,0.3744,0.22032,0.06768,0,0.01872
2004/11/3 12:00,0.05328,0,0.34128,0.0216,0,0.2232,0.07056,0,0.05184
2004/11/3 12:15,0.05184,0,0.36288,0.02304,0.20304,0.4968,0.072,0,-0.02016
2004/11/3 12:30,0.08784,0,0.18144,0.0216,0.49536,0.57168,0.07488,0,-0.05328
2004/11/3 12:45,0.0936,0,0.18,0.02448,0.11376,0.40032,0.07488,0,0.00432
2004/11/3 13:00,0.0864,0,0.17568,0.0216,0,0.22032,0.04176,0,0.05328
2004/11/3 13:15,0.0864,0,0.16992,0.02736,0.46656,0.21888,0.07488,0,-0.00576
2004/11/3 13:30,0.0864,0,0.18144,0.02304,0.28224,0.2232,0.07056,0,0.0072
2004/11/3 13:45,0.0864,0,0.18288,0.0216,0,0.21888,0.07632,0,0.03888
2004/11/3 14:00,0.10224,0,0.37008,0.02592,0.30528,0.22176,0.07488,0,-0.01008
2004/11/3 14:15,0.0936,0,0.57168,0.02304,0.4536,0.21888,0.0432,0,-0.0288
2004/11/3 14:30,0.46368,0,0.65664,0.0216,0,0.2232,0.07488,0,-0.03744
2004/11/3 14:45,0.31536,0,0.61632,0.0216,0.10944,0.22032,0.07056,0,-0.00432
2004/11/3 15:00,0.3024,0,0.64656,0.0288,0.48816,0.22176,0.07488,0,-0.07632
2004/11/3 15:15,0.252,0,0.64368,0.02448,0.13104,0.22032,0.07488,0,0
2004/11/3 15:30,0.22464,0,0.64944,0.0216,0,0.22176,0.07632,0,-0.01152
2004/11/3 15:45,0.29664,0,0.71136,0.02592,0.42336,0.2304,0.0432,0,-0.07488
2004/11/3 16:00,0.2592,0,0.95472,0.02448,0.29088,0.43776,0.07776,0,-0.1152
2004/11/3 16:15,0.24624,0,0.92736,0.46944,0.01728,0.42624,0.07632,0,-0.18144
2004/11/3 16:30,0.19872,0,0.7272,0.02448,0.26352,0.42048,0.07488,0,-0.05904
2004/11/3 16:45,0.26064,0,0.75744,0.02736,0.45504,0.43488,0.06192,0,-0.13968
2004/11/3 17:00,0.26064,0,0.74592,0.0216,0,0.42768,0.05328,0,-0.0576
2004/11/3 17:15,0.25344,0,0.75312,0.02448,0.09216,0.40608,0.07776,0,-0.08352
2004/11/3 17:30,0.22896,0,0.8352,0.02592,0.48672,0.4392,0.07488,0,-0.13248
2004/11/3 17:45,0.26064,0,1.2888,0.0288,0.16416,0.43344,0.072,0,-0.13536
2004/11/3 18:00,0.24048,0,1.49328,0.0216,0.03024,0.59616,0.07632,0,-0.16704
2004/11/3 18:15,0.2664,0,1.66032,0.0288,0.48384,0.60048,0.07344,0,-0.18
2004/11/3 18:30,0.24048,0,1.81152,0.03312,0.48816,0.324,0.0432,0,-0.18864
2004/11/3 18:45,0.22752,0,1.74528,0.0216,0.5616,0.23328,0.07344,0,-0.23904
2004/11/3 19:00,0.16272,0,1.9152,0.02304,0.55008,0.3888,0.07632,0,-0.28224
2004/11/3 19:15,0.16128,0,2.4408,0.02448,0.4608,0.24768,0.06912,0,-0.24048
2004/11/3 19:30,0.1728,0,2.3184,0.03168,0.54576,0.22032,0.06336,0,-0.21312
2004/11/3 19:45,0.1944,0,2.51856,0.02448,0.53712,0.66096,0.0432,0,-0.3168
2004/11/3 20:00,0.24336,0,2.27808,0.02736,0.504,0.50256,0.07344,0,-0.26208
2004/11/3 20:15,0.21456,0,2.33424,0.02592,0.34848,0.29952,0.07344,0,-0.20448
2004/11/3 20:30,0.25488,0,2.7792,0.0216,0,0.21744,0.07344,0,-0.23472
2004/11/3 20:45,0.20448,0,2.69568,0.02736,0.36432,0.21888,0.20592,0,-0.27792
2004/11/3 21:00,0.2016,0,2.6856,0.03168,0.48672,0.25344,0.98064,0,-0.40176
2004/11/3 21:15,0.25488,0,2.24208,0.02304,0.13824,0.30096,0.21744,0,-0.19872
2004/11/3 21:30,0.34272,0,1.908,0.0216,0,0.4176,1.14624,0,-0.2808
2004/11/3 21:45,0.36864,0,1.80288,0.02448,0.4896,0.31824,0.34272,0,-0.29088
2004/11/3 22:00,0.4464,0,1.87632,0.02448,0.45216,0.2376,0.15696,0,-0.28944
2004/11/3 22:15,0.52992,0,2.34864,0.0216,0,0.2376,0.07344,0,-0.26928
2004/11/3 22:30,0.33696,0,1.99152,0.02736,0.13536,0.2376,0.07632,0,-0.19296
2004/11/3 22:45,0.13392,0,1.68768,0.02304,0.48816,0.33696,0.07632,0,-0.16416
2004/11/3 23:00,0,0,0.94176,0.02304,0.31248,0.36288,0.04176,0,-0.04608
2004/11/3 23:15,0,0,0.83376,0.0216,0,0.34704,0.072,0,-0.01728
2004/11/3 23:30,0,0,0.71712,0.02448,0.28368,0.25488,0.07632,0,0.01584
2004/11/3 23:45,0,0,0.65952,0.02736,0.4824,0.22608,0.07632,0,-0.00432
2004/11/4 0:00,0,0,0.66528,0.0216,0.06768,0.22896,0.072,0,0.04608
2004/11/4 0:15,0,0,0.6552,0.02304,0.03456,0.22608,0.04464,0,0.06336
2004/11/4 0:30,0,0,0.56736,0.02736,0.4824,0.23616,0.06912,0,-0.00576
2004/11/4 0:45,0,0,0.54864,0.02448,0.3024,0.22752,0.07632,0,0.01872
2004/11/4 1:00,0,0,0.39312,0.0216,0,0.22608,0.07632,0,0.06336
2004/11/4 1:15,0,0,0.17712,0.02592,0.26352,0.22608,0.0792,0,0.02448
2004/11/4 1:30,0,0,0.324,0.02304,0.49248,0.22752,0.0432,0,0.00144
2004/11/4 1:45,0,0,1.31184,0.02304,0.0576,0.22752,0.07632,0,-0.08064
2004/11/4 2:00,0,0,1.06416,0.0216,0.02592,0.22752,0.07488,0,-0.03456
2004/11/4 2:15,0,0,0.42624,0.02448,0.47952,0.2304,0.07488,0,-0.0216
2004/11/4 2:30,0,0,0.42912,0.02736,0.26064,0.22464,0.072,0,0.00864
2004/11/4 2:45,0,0,0.43344,0.0216,0,0.22896,0.0432,0,0.036
2004/11/4 3:00,0,0,0.43632,0.0288,0.30528,0.22752,0.07632,0,-0.0144
2004/11/4 3:15,0,0,0.4392,0.0288,0.44064,0.22608,0.07632,0,-0.01728
2004/11/4 3:30,0,0,0.432,0.0216,0,0.22608,0.08064,0,0.04752
2004/11/4 3:45,0,0,0.33264,0.02304,0.11088,0.22896,0.07056,0,0.03024
2004/11/4 4:00,0,0,0.24048,0.03168,0.47952,0.22896,0.07632,0,0.0072
2004/11/4 4:15,0,0,0.17712,0.02592,0.15408,0.22608,0.0432,0,0.0576
2004/11/4 4:30,0,0,0.17856,0.0216,0,0.22896,0.07344,0,0.07056
2004/11/4 4:45,0,0,0.18144,0.03024,0.37728,0.22464,0.07776,0,0.02448
2004/11/4 5:00,0,0,0.18144,0.03312,0.3456,0.22896,0.07488,0,0.02304
2004/11/4 5:15,0,0,0.18,0.0216,0,0.22608,0.07632,0,0.06336
2004/11/4 5:30,0.0288,0,0.4824,0.02448,0.1872,0.22464,0.0504,0,0
2004/11/4 5:45,0,0,1.512,1.06704,0.4968,0.2232,0.06768,0,-0.21168
2004/11/4 6:00,0,0,1.75824,0.15552,0.0576,0.25488,0.08064,0,-0.13104
2004/11/4 6:15,0.0288,0,1.95696,1.85904,0,0.21888,0.06912,0,-0.1008
2004/11/4 6:30,0,0,1.872,1.90224,0.54288,0.22176,0.07344,0,-0.39888
2004/11/4 6:45,0,0,1.75392,0.04464,0.34128,0.21744,0.07632,0,-0.13248
2004/11/4 7:00,0.0648,0,1.12896,0.468,0.03024,0.22752,0.07632,0,-0.10656
2004/11/4 7:15,0,0,0.84816,0.76464,0.20304,0.23328,0.06048,0,0.03168
2004/11/4 7:30,0.0576,0,1.0224,0.03168,0.4752,0.2376,0.05616,0,-0.04464
2004/11/4 7:45,0,0,0.79776,0.02448,0.07488,0.22464,0.07488,0,0.04032
2004/11/4 8:00,0,0,0.864,0.0216,0,0.2232,0.65088,0,-0.03744
2004/11/4 8:15,0,0,0.43056,0.03024,0.47808,0.22464,0.07776,0,0.04176
2004/11/4 8:30,0,0,0.35136,0.02736,0.24624,0.54,0.0792,0,0.01728
2004/11/4 8:45,0,0,0.26784,0.0216,0,0.52992,0.07632,0,0.04896
2004/11/4 9:00,0,0,0.26208,0.02592,0.3096,0.22464,0.07632,0,0.03888
2004/11/4 9:15,0,0,0.26208,0.0288,0.42624,0.22464,0.0792,0,0.0432
2004/11/4 9:30,0,0,0.26352,0.0216,0,0.2232,0.07776,0,0.08064
2004/11/4 9:45,0,0,0.26064,0.02448,0.14544,0.22032,0.07776,0,0.072
2004/11/4 10:00,0,0,0.26352,0.02592,0.48096,0.22032,0.07488,0,0.0288
2004/11/4 10:15,0,0,0.25776,0.02448,0.10512,0.22032,0.04464,0,0.08064
2004/11/4 10:30,0,0,0.26496,0.0216,0,0.22032,0.07344,0,0.0792
2004/11/4 10:45,0,0,0.2592,0.02592,0.48672,0.2232,0.0792,0,0.02736
2004/11/4 11:00,0,0,0.26208,0.02304,0.2736,0.22896,0.07632,0,0.0576
2004/11/4 11:15,0,0,0.26208,0.0216,0,0.22608,0.06768,0,0.09216
2004/11/4 11:30,0,0,0.2664,0.02304,0.3168,0.2232,0.07632,0,0.03744
2004/11/4 11:45,0,0,0.26064,0.02304,0.45792,0.22032,0.07344,0,0.03024
2004/11/4 12:00,0,0,0.26208,0.0216,0,0.22608,0.0432,0,0.08496